Regional Weather Roundup
Issued by NWS Sterling, VA

Home | Current Version | Previous Version | Text Only | Print | Product List | Glossary On
Versions: 1 2 3 4 5 6 7 8 9 10 11 12 13 14 15 16 17 18 19 20 21 22 23 24 25 26 27 28 29 30 31 32 33 34 35 36 37 38 39 40 41 42 43 44 45 46 47 48 49 50
000
ASUS41 KLWX 291511
RWRLWX

REGIONAL WEATHER ROUNDUP
NATIONAL WEATHER SERVICE BALTIMORE MD/WASHINGTON DC
1100 AM EDT THU SEP 29 2016

Note: "FAIR" indicates few or no clouds below 12,000 feet
with no significant weather and/or obstructions to visibility.
 TC=TEMPERATURE CELSIUS

 * =Non NWS site. Station does not report precipitation (e.g. rain,
    snow, etc.), thunder, or fog.

DCZ001-MDZ009-015-VAZ040>042-051-053>054-291600-
WASHINGTON METRO

CITY           SKY/WX    TMP DP  RH WIND       PRES   REMARKS
WASHINGTON NAT LGT RAIN  70  68  93 E16G29    30.14R FOG
DULLES         LGT RAIN  68  66  93 E12       30.13R FOG
FT BELVOIR     CLOUDY    69  67  93 VRB7G20   30.13R
QUANTICO       CLOUDY    72  68  87 SE18      30.12R
COLLEGE PARK*  CLOUDY    66  64  94 E10       30.15S
LEESBURG*      CLOUDY    68  68 100 E9G23     30.14R FOG
GAITHERSBURG*  CLOUDY    64  63  94 E8        30.19S

$$

MDZ006>007-011-014-291600-
BALTIMORE METRO

CITY           SKY/WX    TMP DP  RH WIND       PRES   REMARKS
BWI AIRPORT    LGT RAIN  66  64  93 E22G33    30.16S FOG
MD SCIENCE CTR   N/A     66  63  90 MISG      30.18R
MARTIN STATE   CLOUDY    66  66 100 E14G20      N/A
ANNAPOLIS      CLOUDY    70  66  87 E16G24    30.16R
FORT MEADE*    CLOUDY    64  63  94 E14G20    30.18F

$$

MDZ012-015-019>023-291600-
MARYLAND EASTERN SHORE

CITY           SKY/WX    TMP DP  RH WIND       PRES   REMARKS
OCEAN CITY     RAIN     N/A N/A N/A E22G32    30.16R
SALISBURY      CLOUDY    69  67  93 E21G31    30.14S
BAY BRIDGE AP* CLOUDY    68  66  94 MISG      30.17R
CAMBRIDGE*     PTSUNNY   70  64  83 E13G28    30.14R
EASTON*        CLOUDY    70  66  88 E16G25    30.19S FOG

$$

MDZ017>025-291600-
SOUTHERN MARYLAND

CITY           SKY/WX    TMP DP  RH WIND       PRES   REMARKS
PATUXENT RIVER CLOUDY    71  67  87 E18G26    30.12R
ST INIGOES     LGT RAIN  73  69  87 E15G25    30.10S
LEONARDTOWN*   CLOUDY    70  64  83 E12G24    30.13S

$$

MDZ003>005-291600-
NORTH CENTRAL MARYLAND

CITY           SKY/WX    TMP DP  RH WIND       PRES   REMARKS
FREDERICK*     NOT AVBL
HAGERSTOWN APT CLOUDY    65  61  87 E13G21    30.16R

$$

MDZ501>502-291600-
WESTERN MARYLAND

CITY           SKY/WX    TMP DP  RH WIND       PRES   REMARKS
OAKLAND*       CLOUDY    54  54 100 E15G21    30.13S FOG
CUMBERLAND*    CLOUDY    61  61 100 N3        30.18R

$$

VAZ025>031-291600-
SHENANDOAH VALLEY

CITY           SKY/WX    TMP DP  RH WIND       PRES   REMARKS
WINCHESTER*    HVY RAIN  64  64 100 NE5         N/A
FRONT ROYAL*   CLOUDY    68  66  94 CALM      30.10S
LURAY*         PTSUNNY   70  70 100 N7        30.10S
NEW MARKET*    CLOUDY   N/A N/A N/A CALM      30.09S
STAUNTON*      CLOUDY    71  63  77 SE9       30.12R
WAYNESBORO*    CLOUDY    67  62  84 SE7       30.11R

$$

WVZ021-048>050-054>055-291600-
EASTERN WEST VIRGINIA PANHANDLE

CITY           SKY/WX    TMP DP  RH WIND       PRES   REMARKS
MARTINSBURG    RAIN      65  62  90 E10       30.14R FOG
PETERSBURG*    RAIN      62  61  96 N3        30.12R

$$

VAZ036>039-050-291600-
CENTRAL FOOTHILLS

CITY           SKY/WX    TMP DP  RH WIND       PRES   REMARKS
CHARLOTTESVILL PTSUNNY   71  66  84 E5        30.09S
CULPEPER*      CLOUDY    70  69  99 E5        30.11S
ORANGE*        DRIZZLE   70  70 100 NE3       30.11S
GORDONSVILLE*  CLOUDY    70  68  94 CALM      30.08S FOG
WARRENTON*     CLOUDY    70  65  83 E12G20    30.11R

$$

VAZ055>057-291600-
NORTH AND CENTRAL PIEDMONT

CITY           SKY/WX    TMP DP  RH WIND       PRES   REMARKS
FREDERICKSBRG* LGT RAIN  71  71 100 E9        30.10R
STAFFORD*      LGT RAIN  70  69  98 E12       30.15R

$$

NCZ024-NYZ072-PAZ021-071-VAZ022-071-291600-
OTHER REGIONAL OBSERVATIONS

CITY           SKY/WX    TMP DP  RH WIND       PRES   REMARKS
NEW YORK CITY  CLOUDY    61  53  75 E9G24     30.39R
PHILADELPHIA   CLOUDY    64  62  93 E20       30.28R
PITTSBURGH     LGT RAIN  58  58 100 E12       30.11R
ROANOKE        CLOUDY    67  65  93 SE10      30.09R
RICHMOND       CLOUDY    72  69  90 E8        30.07R
RALEIGH        CLOUDY    70  67  90 CALM      30.05S

$$

ANZ530>537-291600-
MARINE OBSERVATIONS

STATION/POSITION TIME  TEMP    WIND        PRES
                       AIR SEA DIR/SP/G
                 (UTC) (F)     (DEG/KT/KT) (MB)
THOMAS PT LIGHT  1500   69 73   90/ 24/ 26 1022.0R
BALT KEY BRIDGE  1448   67      70/ 18/ 25 1021.7R
COVE POINT       1448   70     120/ 16/ 24 1020.6R
LEWISETTA        1448   73 72  110/ 26/ 30 1018.5F
SOLOMONS ISLAND  1448   71 74   80/ 22/ 25   N/A
PINEY POINT      1448          110/ 20/ 25   N/A

$$




USA.gov is the U.S. government's official web portal to all federal, state and local government web resources and services.